Location: DaVinci Observatory
(43.1080°N, 78.6453°W)
Time: 22:22:33
(UTC-04:00)

OTV 5 (USA 277) - Pass Details

Date: 19 June 2019
Orbit: 310 x 324 km, 54.5° (Epoch: 08 October)

Event Time Altitude Azimuth Distance (km) Brightness Sun altitude
Exits shadow 22:14:19 - 78° (ENE) 1,511 ? -11.4°
Enters shadow 23:32:07 -23° 237° (WSW) 5,735 ? -19.3°
Maximum altitude 23:45:45 40° 327° (NNW) 499 ? -20.3°
